Location: St. Louis
(38.6270°N, 90.1994°W)
Time: 10:34:52
(UTC-05:00)

OPS 7613 P/L 1 - Visible Passes

Search period start: 03 July 2022 00:00
Search period end: 13 July 2022 00:00
Orbit: 885 x 912 km, 70.0° (Epoch: 02 July)

Date Brightness Start Highest point End Pass type
(mag) Time Alt. Az. Time Alt. Az. Time Alt. Az.
03 Jul 11.0 04:07:25 10° N 04:11:54 22° NE 04:16:21 10° ESE visible
03 Jul 11.1 20:53:55 10° WSW 20:58:42 24° NW 21:03:29 10° N visible
04 Jul 10.5 04:09:22 10° N 04:14:22 28° NE 04:19:20 10° ESE visible
04 Jul 11.4 20:57:01 10° W 21:01:12 19° NW 21:05:22 10° N visible
05 Jul 10.0 04:11:25 10° N 04:16:48 35° ENE 04:22:07 10° ESE visible
05 Jul 11.6 21:00:23 10° W 21:03:45 15° NW 21:07:06 10° NNW visible
06 Jul 9.5 04:13:32 10° NNW 04:19:11 45° ENE 04:24:48 10° SE visible
06 Jul 11.8 21:04:12 10° WNW 21:06:19 12° NW 21:08:26 10° NNW visible
07 Jul 8.9 04:15:43 10° NNW 04:21:33 59° ENE 04:27:19 10° SE visible
08 Jul 11.2 02:34:48 10° NNE 02:37:25 13° NE 02:40:01 10° ENE visible
08 Jul 8.5 04:17:56 10° NNW 04:23:52 78° ENE 04:29:44 10° SSE visible
09 Jul 11.0 02:36:21 10° N 02:39:59 17° NE 02:43:37 10° E visible
09 Jul 8.2 04:20:14 10° NNW 04:26:09 81° WSW 04:32:01 10° SSE visible
10 Jul 10.7 02:38:08 10° N 02:42:31 21° NE 02:46:51 10° E visible
10 Jul 8.3 04:22:35 10° NNW 04:28:24 62° WSW 04:34:09 10° S visible
11 Jul 10.3 02:40:04 10° N 02:44:59 26° NE 02:49:52 10° ESE visible
11 Jul 8.6 04:25:01 10° NW 04:30:36 46° WSW 04:36:10 10° S visible
12 Jul 9.8 02:42:07 10° N 02:47:25 34° ENE 02:52:42 10° ESE visible
12 Jul 8.9 04:27:32 10° NW 04:32:47 35° WSW 04:38:02 10° SSW visible
